Location: Demmingen
(48.6757°N, 10.4375°E)
Time: 04:52:31
(UTC+00:00)

SL-16 R/B - Pass Details

Date: 16 August 2024
Orbit: 842 x 845 km, 71.0° (Epoch: 16 September)

Event Time Altitude Azimuth Distance (km) Brightness Sun altitude
Exits shadow 01:12:28 - 283° (WNW) 3,190 5.0 -23.1°
Reaches altitude 10° 01:15:56 10° 309° (NW) 2,472 4.7 -22.8°
Maximum altitude 01:18:07 12° 332° (NNW) 2,323 4.9 -22.6°
Drops below altitude 10° 01:20:18 10° 355° (N) 2,476 5.4 -22.5°
Sets 01:24:34 0° 25° (NNE) 3,415 6.8 -22.1°
